www.pogodaiklimat.ru

Погода и климат >> Архив погоды >> Бахрейн >> Bahrain


АРХИВ ПОГОДЫ в Bahrain

Время (UTC), дата Ветер
(напр.,м/с)
 
Видим.   Явления Облачность Т
(С)
Тd
(С)
f
(%)
Тe
(С)
Тes
(С)
Комфортность P
(гПа)
Po
(гПа)
Тmin
(С)
Tmax
(С)
R
(мм)
R24
(мм)
S
(см)
12 12.10 СВ 4 12 км ясно +34.1 +25.2 60 +48 +52 опасность
перегрева
1010.3 1010.0
15 12.10 В 5 12 км ясно +32.6 +23.5 59 +44 +44 опасность
перегрева
1010.8 1011.0
18 12.10 В 3 12 км ясно +31.9 +23.9 63 +44 +44 опасность
перегрева
1011.8 1012.0 +35.4
21 12.10 ЮВ 3 12 км ясно +31.5 +24.3 66 +44 +44 опасность
перегрева
1011.6 1012.0
00 13.10 В 2 12 км ясно +30.7 +23.3 65 +41 +41 опасность
перегрева
1011.5 1012.0
03 13.10 ЮВ 3 16 км ясно +30.4 +24.2 70 +42 +42 опасность
перегрева
1012.5 1013.0
06 13.10 ЮВ 4 16 км ясно +33.1 +23.9 59 +45 +50 опасность
перегрева
1014.1 1014.0 +29.3
09 13.10 В 4 14 км ясно +34.4 +21.7 48 +43 +53 опасность
перегрева
1013.1 1013.0
12 13.10 С 4 14 км ясно +34.8 +21.4 46 +43 +46 опасность
перегрева
1011.7 1012.0
15 13.10 СВ 4 14 км ясно +32.8 +22.2 54 +42 +42 опасность
перегрева
1012.4 1012.0
18 13.10 В 5 14 км ясно +32.1 +23.0 59 +42 +42 опасность
перегрева
1013.9 1014.0 +35.8
21 13.10 В 4 14 км ясно +31.3 +23.3 63 +42 +42 опасность
перегрева
1013.8 1014.0
00 14.10 ЮВ 2 14 км ясно +30.5 +23.3 65 +41 +41 опасность
перегрева
1012.9 1013.0
03 14.10 ЮЗ 1 16 км 4/4 750 м
[Sc]
+29.1 +22.7 68 +38 +38 очень
душно
1013.2 1013.0
06 14.10 С 2 16 км ясно +35.6 +15.2 30 +37 +45 душно 1014.9 1015.0 +28.2
09 14.10 СВ 4 14 км 4/4 900 м
[Cu med, cong]
+35.4 +17.5 35 +39 +45 очень
душно
1013.9 1014.0
12 14.10 СВ 4 14 км 1/1 900 м
[Cu hum]
+34.3 +22.0 49 +43 +46 опасность
перегрева
1012.2 1012.0
15 14.10 В 4 12 км ясно +32.2 +23.9 62 +44 +44 опасность
перегрева
1012.3 1012.0
18 14.10 В 4 10 км мгла ясно +31.4 +23.7 64 +43 +43 опасность
перегрева
1013.9 1014.0 +37.3
21 14.10 В 3 12 км ясно +30.5 +24.8 72 +44 +44 опасность
перегрева
1013.4 1013.0
00 15.10 СВ 2 12 км ясно +30.2 +24.0 69 +42 +42 опасность
перегрева
1013.0 1013.0
03 15.10 нст 1 9000 м мгла ясно +29.6 +24.1 72 +41 +41 опасность
перегрева
1013.4 1013.0
06 15.10 Ю 4 12 км ясно +33.0 +21.4 51 +41 +47 опасность
перегрева
1015.1 1015.0 +28.6
09 15.10 ЮЗ 3 14 км ясно +35.3 +19.2 39 +40 +52 опасность
солнечного
удара
1013.4 1013.0
12 15.10 С 8 12 км 6/3 900 м
[Cu hum Ci sp]
+33.8 +21.9 50 +42 +43 опасность
перегрева
1013.0 1013.0
15 15.10 В 5 7000 м мгла 3/0
[Ac trans Ci fib]
+31.4 +22.5 59 +41 +41 опасность
перегрева
1013.9 1014.0
18 15.10 ЮВ 2 12 км ясно +30.9 +21.6 58 +39 +39 очень
душно
1014.2 1014.0 +36.7
21 15.10 СЗ 3 14 км ясно +30.0 +21.3 60 +38 +38 очень
душно
1013.1 1013.0
00 16.10 З 2 12 км ясно +30.2 +21.5 60 +38 +38 очень
душно
1012.6 1013.0
03 16.10 З 2 5000 м мгла ясно +29.0 +24.0 74 +40 +40 очень
душно
1013.8 1014.0
06 16.10 СЗ 5 7000 м мгла ясно +31.3 +22.5 60 +41 +45 опасность
перегрева
1015.3 1015.0 +28.8
09 16.10 СЗ 7 8000 м мгла ясно +32.9 +22.6 55 +43 +47 опасность
перегрева
1013.7 1014.0
12 16.10 С 5 8000 м мгла ясно +33.2 +22.3 53 +42 +45 опасность
перегрева
1012.4 1012.0
15 16.10 С 3 7000 м пыль ясно +31.4 +21.2 55 +39 +39 очень
душно
1012.6 1013.0
18 16.10 С 2 6000 м пыль ясно +30.8 +22.6 62 +40 +40 очень
душно
1013.5 1014.0 +33.6
21 16.10 СЗ 1 5000 м мгла ясно +29.5 +22.4 66 +39 +39 очень
душно
1012.8 1013.0
00 17.10 штиль 0 5000 м мгла ясно +28.8 +22.7 70 +38 +38 очень
душно
1012.6 1013.0
03 17.10 СЗ 1 6000 м мгла ясно +28.1 +22.7 73 +37 +37 очень
душно
1013.7 1014.0
06 17.10 В 2 6000 м мгла 3/3 900 м
[Cu hum]
+31.5 +23.0 61 +42 +47 опасность
перегрева
1014.5 1015.0 +27.6
09 17.10 В 5 7000 м мгла 5/5 900 м
[Cu hum]
+32.0 +22.0 56 +41 +44 опасность
перегрева
1012.9 1013.0
12 17.10 В 5 8000 м мгла 3/3 900 м
[Cu hum]
+32.0 +22.3 57 +41 +43 опасность
перегрева
1011.3 1011.0
15 17.10 СВ 3 7000 м мгла 1/1 900 м
[Cu hum]
+30.9 +22.1 59 +40 +40 очень
душно
1011.4 1011.0
18 17.10 СВ 3 7000 м мгла ясно +30.7 +22.0 60 +39 +39 очень
душно
1012.3 1012.0 +32.8
21 17.10 В 4 12 км 3/3 1200 м
[Sc]
+30.4 +22.2 62 +39 +39 очень
душно
1012.2 1012.0
00 18.10 нст 1 12 км 4/4 1200 м
[Sc]
+29.5 +21.9 64 +38 +38 очень
душно
1011.5 1012.0
03 18.10 ЮЗ 2 9000 м мгла 4/4 900 м
[Sc Ac trans]
+29.7 +22.3 65 +39 +39 очень
душно
1012.3 1012.0
06 18.10 ЮВ 2 12 км 5/5 900 м
[Cu hum]
+31.0 +22.8 62 +41 +45 опасность
перегрева
1013.6 1014.0 +28.8
09 18.10 В 4 12 км 4/4 900 м
[Cb cap]
+31.1 +19.7 51 +37 +43 очень
душно
1012.3 1012.0
12 18.10 В 3 12 км 5/1 900 м
[Cu hum Ci sp]
+32.4 +18.1 43 +37 +40 очень
душно
1010.2 1010.0
15 18.10 СВ 3 12 км ясно +30.8 +20.0 53 +37 +37 очень
душно
1010.8 1011.0
18 18.10 В 4 10 км мгла ясно +30.3 +22.1 62 +39 +39 очень
душно
1012.2 1012.0 +33.3
21 18.10 В 4 12 км ясно +30.2 +21.5 60 +38 +38 очень
душно
1012.5 1013.0
00 19.10 В 2 12 км ясно +29.3 +21.2 62 +37 +37 очень
душно
1012.0 1012.0
03 19.10 нст 1 12 км 6/0
[Ac trans]
+28.9 +21.6 65 +37 +37 очень
душно
1012.5 1013.0
06 19.10 В 3 12 км 3/0
[Ac trans]
+31.9 +21.7 55 +40 +46 очень
душно
1014.6 1015.0 +28.5

 

Местоположение метеостанции Bahrain (Бахрейн): широта 26.27 долгота 50.65 высота над уровнем моря 2 м.

В архиве по умолчанию представлена погода в Bahrain за последнюю неделю. Архивные данные за месяц целиком и за предыдущие месяцы, начиная с января 2011 года, Вы можете получить, выбрав интересующий диапазон дат из раскрывающегося списка и нажав кнопку "Ввод!".


*Определитесь, кто Вы:
робот инопланетянин человек

Внимание! Время в таблицах - всемирное. Для получения местного времени необходимо прибавить поправку, которая в Bahrain равна 4 ч.

Смотрите также архив погоды в соседних городах и на ближайших метеорологических станциях:

Погода в Dhahran (Саудовская Аравия) (48 км)
Погода в King Fahd Int Airport (Саудовская Аравия) (85 км)
Погода в Dukhan (Катар) (97 км)
Погода в Doha (Катар) (146 км)
Погода в Hamad Int Airport (Катар) (147 км)
Погода в Al Ahsa (Саудовская Аравия) (159 км)
Погода в Abu Samra (Катар) (170 км)
Погода в Bandar Deyr (Иран) (215 км)
Погода в Bushehr (Иран) (299 км)
Погода в Bushehr Airport (Иран) (302 км)

Пояснения к столбцам:

Ветер - указаны скорость ветра в м/с - средняя за 10 мин, порывы в срок и между сроками (в фигурных скобках) и направление, откуда дует ветер: С - северный, СВ - северо-восточный, В - восточный, ЮВ - юго-восточный, Ю - южный, ЮЗ - юго-западный, З - западный, СЗ - северо-западный.
Видимость - горизонтальная дальность видимости в метрах или километрах. При видимости от 1 до 10 км при отсутствии осадков обычно наблюдается дымка, при ухудшении видимости до 1 км и менее - туман. В сухую погоду видимость может ухудшаться дымом, пылью или мглою.
Явления - указаны атмосферные явления, наблюдавшиеся в срок или в последний час перед сроком; фигурными скобками обозначены явления, наблюдавшиеся между сроками (за 1-3 часа до срока); квадратными скобками обозначены град или гололедные отложения с указанием их диаметра в мм.
Облачность - указаны через наклонную черту общая и нижняя облачность в баллах и высота нижней границы облаков в метрах; квадратными скобками обозначены формы облаков: Ci - перистые, Cs - перисто-слоистые, Cc - перисто-кучевые, Ac - высококучевые, As - высокослоистые, Sc - слоисто-кучевые, Ns - слоисто-дождевые, Cu - кучевые, Cb - кучево-дождевые. Подробнее классификацию облаков см. в Атласе облаков (PDF).
T - Температура воздуха - температура, измеренная на высоте 2 м над землей.
Td - Температура точки росы - температура, при понижении до которой содержащийся в воздухе водяной пар достигнет насыщения.
f - Относительная влажность воздуха - влажноcть воздуха, измеренная на высоте 2 м над землей.
Te - Эффективная температура - температура, которую ощущает одетый по сезону человек в тени. Характеристика душности погоды. При расчете учитывается влияние влажности воздуха и скорости ветра на теплоощущения человека.
Tes - Эффективная температура на солнце - температура, которую ощущает человек, с поправкой на солнечный нагрев. Характеристика знойности погоды. Зависит от высоты солнца над горизонтом, облачности и скорости ветра. Ночью, в пасмурную погоду, а также при ветре 12 м/с и более поправка равна нулю.
P - Атмосферное давление - приведенное к уровню моря атмосферное давление.
Po - Атмосферное давление - измеренное на уровне метеостанции атмосферное давление.
Tmin - Минимальная температура - минимум температуры воздуха на высоте 2 м над землей.
Tmax - Максимальная температура - максимум температуры воздуха на высоте 2 м над землей.
R - Количество осадков - Количество выпавших осадков за период времени, мм. При наведении курсора мыши на число - период времени, за который выпало указанное количество осадков.
R24 - Количество осадков - Количество выпавших осадков за 24 часа, мм.
S - Снежный покров - Высота снежного покрова, см. При наведении курсора мыши на число - состояние снежного покрова и степень покрытия местности в баллах.